Weather History for Weaverville, CA

Change the Weather History Date:

Saturday, March 22, 2014

  Actual Average (KRDD) Record (KRDD)
Temperature  
Mean Temperature 48 °F -  
Max Temperature 68 °F 65 °F 81 °F (2007)
Min Temperature 28 °F 43 °F 29 °F (1987)
Degree Days  
Heating Degree Days 17    
Cooling Degree Days 0    
Moisture  
Dew Point 25 °F    
Average Humidity 55    
Maximum Humidity 93    
Minimum Humidity 11    
Precipitation  
Precipitation 0.00 in 0.12 in 2.07 in (1995)
Month to date precipitation 3.45  
Year to date precipitation 14.92  
Since 1 July precipitation 28.68  
Sea Level Pressure  
Sea Level Pressure 30.08 in    
Wind  
Wind Speed 1 mph (NW)    
Max Wind Speed 7 mph    
Max Gust Speed -    
Visibility 10 miles    
Events      
T = Trace of Precipitation, MM = Missing Value Source: NWS Daily Summary

Daily Weather History Graph

Daily Weather History Graph

Search for Another Location

Airport:

Trip Planner

Search our weather history database for the weather conditions in past years. The results will help you decide how hot, cold, wet, or windy it might be!

Date:

Astronomy

Mar. 22, 2014 Rise Set
Actual Time 7:11 AM PDT 7:26 PM PDT
Civil Twilight 6:44 AM PDT 7:53 PM PDT
Nautical Twilight 6:12 AM PDT 8:25 PM PDT
Astronomical Twilight 5:39 AM PDT 8:58 PM PDT
Moon 12:52 AM PDT 10:58 AM PDT
Length of Visible Light 13h 09m
Length of Day
12h 14m
Waning Gibbous, 64% of the Moon is Illuminated
Mar 22
Waning Gibbous
Mar 23
Last Quarter
Mar 30
New
Apr 7
First Quarter
Apr 15
Full

Hourly Weather History & Observations

Time (PDT) Temp. Windchill Dew Point Humidity Pressure Visibility Wind Dir Wind Speed Gust Speed Precip Events Conditions
12:15 AM 39.2 °F - 32.0 °F 75% 30.04 in 10.0 mi Calm Calm - N/A   Overcast
12:35 AM 37.4 °F - 32.0 °F 81% 30.04 in 10.0 mi Calm Calm - N/A   Overcast
12:55 AM 37.4 °F 34.9 °F 30.2 °F 75% 30.05 in 10.0 mi NNE 3.5 mph - N/A   Overcast
1:15 AM 35.6 °F 32.8 °F 32.0 °F 87% 30.05 in 10.0 mi NE 3.5 mph - N/A   Overcast
1:35 AM 35.6 °F - 30.2 °F 81% 30.05 in 10.0 mi Calm Calm - N/A   Mostly Cloudy
1:55 AM 35.6 °F - 30.2 °F 81% 30.06 in 10.0 mi Calm Calm - N/A   Mostly Cloudy
2:15 AM 35.6 °F - 30.2 °F 81% 30.06 in 10.0 mi Calm Calm - N/A   Mostly Cloudy
2:35 AM 33.8 °F 30.8 °F 30.2 °F 87% 30.07 in 10.0 mi NNE 3.5 mph - N/A   Scattered Clouds
2:55 AM 33.8 °F 30.8 °F 28.4 °F 81% 30.07 in 10.0 mi North 3.5 mph - N/A   Scattered Clouds
3:15 AM 32.0 °F - 28.4 °F 87% 30.07 in 10.0 mi Calm Calm - N/A   Partly Cloudy
3:35 AM 32.0 °F - 28.4 °F 87% 30.07 in 10.0 mi Calm Calm - N/A   Mostly Cloudy
3:55 AM 32.0 °F - 28.4 °F 87% 30.08 in 10.0 mi Calm Calm - N/A   Scattered Clouds
4:15 AM 32.0 °F - 28.4 °F 87% 30.08 in 10.0 mi Calm Calm - N/A   Scattered Clouds
4:35 AM 32.0 °F - 28.4 °F 87% 30.09 in 10.0 mi Calm Calm - N/A   Partly Cloudy
4:55 AM 32.0 °F - 28.4 °F 87% 30.09 in 10.0 mi Calm Calm - N/A   Clear
5:15 AM 30.2 °F - 28.4 °F 93% 30.09 in 10.0 mi Calm Calm - N/A   Clear
5:35 AM 30.2 °F - 28.4 °F 93% 30.10 in 10.0 mi Calm Calm - N/A   Partly Cloudy
5:55 AM 30.2 °F - 26.6 °F 86% 30.10 in 10.0 mi Calm Calm - N/A   Partly Cloudy
6:15 AM 30.2 °F - 26.6 °F 86% 30.11 in 10.0 mi Calm Calm - N/A   Clear
6:35 AM 28.4 °F - 26.6 °F 93% 30.11 in 10.0 mi Calm Calm - N/A   Partly Cloudy
6:55 AM 28.4 °F - 26.6 °F 93% 30.12 in 10.0 mi Calm Calm - N/A   Scattered Clouds
7:15 AM 28.4 °F - 26.6 °F 93% 30.12 in 10.0 mi Calm Calm - N/A   Partly Cloudy
7:35 AM 28.4 °F - 26.6 °F 93% 30.13 in 10.0 mi Calm Calm - N/A   Clear
7:55 AM 28.4 °F - 26.6 °F 93% 30.14 in 10.0 mi Calm Calm - N/A   Clear
8:15 AM 30.2 °F - 26.6 °F 86% 30.14 in 10.0 mi Calm Calm - N/A   Clear
8:35 AM 32.0 °F - 28.4 °F 87% 30.14 in 10.0 mi Calm Calm - N/A   Clear
8:55 AM 33.8 °F - 28.4 °F 81% 30.14 in 10.0 mi Calm Calm - N/A   Clear
9:15 AM 37.4 °F - 28.4 °F 70% 30.14 in 10.0 mi Calm Calm - N/A   Clear
9:35 AM 39.2 °F - 30.2 °F 70% 30.15 in 10.0 mi Calm Calm - N/A   Clear
9:55 AM 41.0 °F 39.0 °F 32.0 °F 70% 30.15 in 10.0 mi South 3.5 mph - N/A   Clear
10:15 AM 44.6 °F - 30.2 °F 57% 30.14 in 10.0 mi Calm Calm - N/A   Clear
10:35 AM 46.4 °F 45.2 °F 28.4 °F 50% 30.14 in 10.0 mi SSW 3.5 mph - N/A   Clear
10:55 AM 48.2 °F - 28.4 °F 46% 30.13 in 10.0 mi SW 3.5 mph - N/A   Clear
11:15 AM 50.0 °F - 30.2 °F 47% 30.13 in 10.0 mi Calm Calm - N/A   Clear
11:35 AM 53.6 °F - 28.4 °F 38% 30.12 in 10.0 mi Calm Calm - N/A   Clear
11:55 AM 55.4 °F - 30.2 °F 38% 30.12 in 10.0 mi SSW 5.8 mph - N/A   Clear
12:15 PM 59.0 °F - 28.4 °F 31% 30.11 in 10.0 mi South 5.8 mph - N/A   Clear
12:35 PM 60.8 °F - 24.8 °F 25% 30.10 in 10.0 mi Calm Calm - N/A   Clear
12:55 PM 62.6 °F - 15.8 °F 16% 30.10 in 10.0 mi Calm Calm - N/A   Clear
1:15 PM 64.4 °F - 14.0 °F 14% 30.10 in 10.0 mi WNW 3.5 mph - N/A   Clear
1:35 PM 64.4 °F - 14.0 °F 14% 30.09 in 10.0 mi Calm Calm - N/A   Clear
1:55 PM 64.4 °F - 15.8 °F 15% 30.08 in 10.0 mi WSW 3.5 mph - N/A   Clear
2:15 PM 64.4 °F - 15.8 °F 15% 30.07 in 10.0 mi Calm Calm - N/A   Clear
2:35 PM 66.2 °F - 17.6 °F 15% 30.07 in 10.0 mi SW 3.5 mph - N/A   Clear
2:55 PM 66.2 °F - 14.0 °F 13% 30.06 in 10.0 mi Calm Calm - N/A   Clear
3:15 PM 66.2 °F - 15.8 °F 14% 30.05 in 10.0 mi SSW 5.8 mph - N/A   Clear
3:35 PM 68.0 °F - 10.4 °F 11% 30.05 in 10.0 mi South 4.6 mph - N/A   Clear
3:55 PM 68.0 °F - 12.2 °F 12% 30.04 in 10.0 mi Calm Calm - N/A   Clear
4:15 PM 68.0 °F - 12.2 °F 12% 30.03 in 10.0 mi WSW 5.8 mph - N/A   Clear
4:35 PM 68.0 °F - 12.2 °F 12% 30.03 in 10.0 mi West 3.5 mph - N/A   Clear
4:55 PM 68.0 °F - 17.6 °F 15% 30.03 in 10.0 mi SW 6.9 mph - N/A   Clear
5:15 PM 68.0 °F - 15.8 °F 13% 30.02 in 10.0 mi WSW 3.5 mph - N/A   Clear
5:35 PM 68.0 °F - 14.0 °F 12% 30.02 in 10.0 mi NW 3.5 mph - N/A   Clear
5:55 PM 68.0 °F - 10.4 °F 11% 30.02 in 10.0 mi WNW 3.5 mph - N/A   Clear
6:15 PM 68.0 °F - 14.0 °F 12% 30.02 in 10.0 mi Calm Calm - N/A   Clear
6:35 PM 66.2 °F - 19.4 °F 17% 30.02 in 10.0 mi WSW 4.6 mph - N/A   Clear
6:55 PM 66.2 °F - 23.0 °F 19% 30.02 in 10.0 mi Calm Calm - N/A   Clear
7:15 PM 59.0 °F - 26.6 °F 29% 30.03 in 10.0 mi East 3.5 mph - N/A   Clear
7:35 PM 55.4 °F - 26.6 °F 33% 30.03 in 10.0 mi NNE 3.5 mph - N/A   Clear
7:55 PM 53.6 °F - 28.4 °F 38% 30.04 in 10.0 mi Calm Calm - N/A   Partly Cloudy
8:15 PM 50.0 °F - 30.2 °F 47% 30.05 in 10.0 mi NNE 3.5 mph - N/A   Scattered Clouds
8:35 PM 50.0 °F - 30.2 °F 47% 30.06 in 10.0 mi NNE 4.6 mph - N/A   Mostly Cloudy
8:55 PM 48.2 °F - 30.2 °F 50% 30.07 in 10.0 mi Calm Calm - N/A   Mostly Cloudy
9:15 PM 46.4 °F 44.3 °F 30.2 °F 53% 30.07 in 10.0 mi North 4.6 mph - N/A   Mostly Cloudy
9:35 PM 46.4 °F 45.2 °F 30.2 °F 53% 30.08 in 10.0 mi NE 3.5 mph - N/A   Mostly Cloudy
9:55 PM 44.6 °F - 32.0 °F 61% 30.08 in 10.0 mi Calm Calm - N/A   Overcast
10:15 PM 44.6 °F 43.1 °F 30.2 °F 57% 30.09 in 10.0 mi North 3.5 mph - N/A   Mostly Cloudy
10:35 PM 42.8 °F 40.1 °F 32.0 °F 66% 30.10 in 10.0 mi North 4.6 mph - N/A   Mostly Cloudy
10:55 PM 41.0 °F - 32.0 °F 70% 30.10 in 10.0 mi Calm Calm - N/A   Mostly Cloudy
11:15 PM 41.0 °F 39.0 °F 32.0 °F 70% 30.11 in 10.0 mi NE 3.5 mph - N/A   Overcast
11:35 PM 41.0 °F 39.0 °F 32.0 °F 70% 30.11 in 10.0 mi NNE 3.5 mph - N/A   Mostly Cloudy
11:55 PM 41.0 °F 39.0 °F 32.0 °F 70% 30.12 in 10.0 mi NE 3.5 mph - N/A   Mostly Cloudy